This demonstration page uses our WeatherBlox Daily Observations layout. Learn more.

Left ArrowRight Arrow

39.08367, -84.50855

Hourly Observations for April 24, 2018

Temp ( °F °C ) Dew Point ( °F °C ) Humidity (%) Winds ( mph kmh ) Pressure ( in mb ) Visibility ( mi km ) Precip ( " mm )
12:53 am 00:53 Partly Cloudy 53 11.7 50 10 89 89 ENE 6 9 30.03 1017 10 16 N/A
1:53 am 01:53 Cloudy 54 12.2 50 10 87 87 NE 5 7 30.02 1017 10 16 N/A
2:53 am 02:53 Cloudy with Light Rain 53 11.7 50 10 89 89 NNE 5 7 30.01 1016 10 16 N/A
3:53 am 03:53 Cloudy 52 11.1 51 10.6 97 97 N N/A 30.00 1016 10 16 0.02 0.51
4:53 am 04:53 Cloudy with Light Rain 52 11.1 51 10.6 97 97 NE 5 7 29.98 1015 9 14 0.02 0.51
5:53 am 05:53 Cloudy with Light Rain 52 11.1 51 10.6 97 97 NE 7 11 29.97 1015 10 16 0.03 0.76
6:53 am 06:53 Cloudy 52 11.1 51 10.6 97 97 NE 5 7 29.97 1015 10 16 N/A
7:53 am 07:53 Cloudy with Light Rain 53 11.7 52 11.1 96 96 NE 3 6 29.98 1015 10 16 N/A
8:53 am 08:53 Cloudy with Light Rain 54 12.2 52 11.1 93 93 ENE 8 13 29.97 1015 10 16 0.01 0.25
9:53 am 09:53 Cloudy with Light Rain 55 12.8 53 11.7 93 93 E 7 11 29.97 1015 10 16 0.01 0.25
10:43 am 10:43 Cloudy with Light Rain 55 12.8 53 11.7 93 93 NE 7 11 29.97 1015 9 14 0.01 0.25
10:53 am 10:53 Cloudy with Light Rain 56 13.3 54 12.2 93 93 ENE 6 9 29.96 1015 10 16 0.01 0.25
11:53 am 11:53 Cloudy with Light Rain 57 13.9 54 12.2 90 90 ENE 7 11 29.95 1014 10 16 0.01 0.25
12:53 pm 12:53 Cloudy with Light Rain 57 13.9 54 12.2 90 90 NE 6 9 29.93 1014 10 16 0.01 0.25
1:53 pm 13:53 Cloudy 57 13.9 53 11.7 87 87 ENE 8 13 29.92 1013 10 16 0.01 0.25
2:53 pm 14:53 Cloudy 57 13.9 53 11.7 87 87 ENE 7 11 29.91 1013 10 16 N/A
3:02 pm 15:02 Cloudy with Light Rain 57 13.9 53 11.7 87 87 NE 7 11 29.91 1013 3 5 N/A
3:13 pm 15:13 Cloudy with Light Rain 57 13.9 54 12.2 90 90 NE 5 7 29.91 1013 3 4 N/A
3:53 pm 15:53 Cloudy with Mist and Fog 56 13.3 55 12.8 97 97 NE 5 7 29.91 1013 3 4 0.01 0.25
4:01 pm 16:01 Cloudy with Light Rain 56 13.3 56 13.3 100 100 NE 6 9 29.94 1014 2 3 N/A
4:19 pm 16:19 Cloudy with Light Rain 56 13.3 56 13.3 100 100 NNE 6 9 29.94 1014 2 2 N/A
4:53 pm 16:53 Cloudy with Light Rain 56 13.3 56 13.3 100 100 NE 3 6 29.90 1013 2 3 0.01 0.25
5:05 pm 17:05 Cloudy with Light Rain 57 13.9 56 13.3 96 96 N N/A 29.91 1013 2 3 0.01 0.25
5:36 pm 17:36 Cloudy with Light Rain 57 13.9 56 13.3 96 96 N N/A 29.91 1013 2 3 0.02 0.51
5:53 pm 17:53 Cloudy with Mist and Fog 56 13.3 56 13.3 100 100 N 5 7 29.90 1013 2 3 0.02 0.51
6:53 pm 18:53 Cloudy with Mist and Fog 56 13.3 56 13.3 100 100 NNE 5 7 29.90 1012 2 3 0.01 0.25
7:01 pm 19:01 Cloudy with Mist and Fog 56 13.3 56 13.3 100 100 N 5 7 29.94 1014 2 3 N/A
7:53 pm 19:53 Cloudy with Mist and Fog 56 13.3 55 12.8 97 97 N 5 7 29.89 1012 2 3 N/A
8:44 pm 20:44 Cloudy 56 13.3 56 13.3 100 100 N N/A 29.94 1014 10 16 N/A
8:53 pm 20:53 Cloudy with Mist and Fog 56 13.3 55 12.8 97 97 N 5 7 29.89 1012 4 6 N/A
9:53 pm 21:53 Cloudy with Mist and Fog 56 13.3 55 12.8 97 97 N 6 9 29.91 1013 5 8 N/A
10:25 pm 22:25 Cloudy with Mist and Fog 55 12.8 55 12.8 100 100 NNW 7 11 29.94 1014 3 5 N/A
10:53 pm 22:53 Cloudy with Mist and Fog 55 12.8 55 12.8 100 100 NNW 8 13 29.91 1013 6 10 0.01 0.25
11:53 pm 23:53 Cloudy with Mist and Fog 55 12.8 54 12.2 96 96 NNW 7 11 29.91 1013 5 8 N/A

Powered by AerisWeather